When you browse on this site, cookies collect data to enhance your experience and personalize the content and advertising you see.
Visit our Privacy Policy to learn more. By continuing to use the site, you agree to this use of cookies and data.
  • In United Kingdom
  • List of Countries
  • For 7 days
  • Water Temperature
  • Satellite Maps
  • Weather Map
  • Weather Widgets
  • user-avatar
    Login

    Hourly Weather Aberdeen

    Today, 19 April, Friday

    Time Temperature Precipitation Wind Pressure Humidity
    00:00 +5°C° 0 mm 3 mps 765 mmHg 94%
    01:00 +6°C° 0 mm 2 mps 765 mmHg 94%
    02:00 +6°C° 0 mm 2 mps 765 mmHg 94%
    03:00 +6°C° 0 mm 2 mps 765 mmHg 94%
    04:00 +6°C° 0 mm 2 mps 765 mmHg 93%
    05:00 +6°C° 0 mm 2 mps 765 mmHg 92%
    06:00 +6°C° 0 mm 2 mps 765 mmHg 92%
    07:00 +8°C° 0 mm 2 mps 765 mmHg 85%
    08:00 +10°C° 0 mm 2 mps 765 mmHg 79%
    09:00 +12°C° 0 mm 2 mps 765 mmHg 72%
    10:00 +12°C° 0 mm 3 mps 765 mmHg 69%
    11:00 +14°C° 0 mm 3 mps 765 mmHg 66%
    12:00 +16°C° 0 mm 3 mps 765 mmHg 62%
    13:00 +16°C° 0 mm 3 mps 765 mmHg 63%
    14:00 +17°C° 0 mm 4 mps 765 mmHg 64%
    15:00 +17°C° 0 mm 4 mps 765 mmHg 64%
    16:00 +15°C° 0 mm 4 mps 765 mmHg 68%
    17:00 +16°C° 0 mm 3 mps 765 mmHg 71%
    18:00 +14°C° 0 mm 3 mps 765 mmHg 75%
    19:00 +14°C° 0 mm 2 mps 765 mmHg 78%
    20:00 +13°C° 0 mm 2 mps 765 mmHg 81%
    21:00 +12°C° 0 mm 1 mps 765 mmHg 85%
    22:00 +11°C° 0 mm 1 mps 765 mmHg 84%
    23:00 +10°C° 0 mm 2 mps 765 mmHg 84%

    Tomorrow, 20 April, Saturday

    Time Temperature Precipitation Wind Pressure Humidity
    00:00 +10°C° 0 mm 2 mps 765 mmHg 84%
    01:00 +10°C° 0 mm 2 mps 765 mmHg 84%
    02:00 +9°C° 0 mm 2 mps 765 mmHg 84%
    03:00 +9°C° 0 mm 2 mps 765 mmHg 84%
    04:00 +9°C° 0 mm 2 mps 765 mmHg 82%
    05:00 +9°C° 0 mm 2 mps 765 mmHg 80%
    06:00 +9°C° 0 mm 2 mps 765 mmHg 79%
    07:00 +12°C° 0 mm 2 mps 765 mmHg 75%
    08:00 +14°C° 0 mm 2 mps 765 mmHg 71%
    09:00 +14°C° 0 mm 3 mps 765 mmHg 68%
    10:00 +16°C° 0 mm 3 mps 765 mmHg 67%
    11:00 +18°C° 0 mm 3 mps 765 mmHg 66%
    12:00 +19°C° 0 mm 3 mps 765 mmHg 65%
    13:00 +19°C° 0 mm 3 mps 764 mmHg 65%
    14:00 +19°C° 0 mm 3 mps 764 mmHg 64%
    15:00 +20°C° 0 mm 2 mps 764 mmHg 64%
    16:00 +19°C° 0 mm 2 mps 764 mmHg 67%
    17:00 +18°C° 0 mm 2 mps 764 mmHg 71%
    18:00 +18°C° 0 mm 1 mps 764 mmHg 75%
    19:00 +16°C° 0 mm 1 mps 764 mmHg 79%
    20:00 +15°C° 0 mm 1 mps 763 mmHg 82%
    21:00 +14°C° 0 mm 1 mps 763 mmHg 85%
    22:00 +14°C° 0 mm 2 mps 763 mmHg 87%
    23:00 +13°C° 0 mm 2 mps 762 mmHg 88%

    Day after tomorrow, 21 April, Sunday

    Time Temperature Precipitation Wind Pressure Humidity
    00:00 +12°C° 0 mm 3 mps 762 mmHg 89%
    01:00 +12°C° 0 mm 2 mps 761 mmHg 90%
    02:00 +12°C° 0 mm 2 mps 760 mmHg 91%
    03:00 +11°C° 0 mm 1 mps 760 mmHg 91%
    04:00 +11°C° 0 mm 1 mps 759 mmHg 91%
    05:00 +11°C° 0 mm 1 mps 758 mmHg 91%
    06:00 +11°C° 0 mm 1 mps 758 mmHg 91%
    07:00 +13°C° 0 mm 2 mps 757 mmHg 85%
    08:00 +13°C° 0 mm 3 mps 757 mmHg 79%
    09:00 +14°C° 0 mm 4 mps 756 mmHg 72%
    10:00 +17°C° 0 mm 4 mps 756 mmHg 68%
    11:00 +17°C° 0 mm 5 mps 755 mmHg 63%
    12:00 +19°C° 0 mm 5 mps 755 mmHg 58%
    13:00 +19°C° 0 mm 5 mps 754 mmHg 56%
    14:00 +20°C° 0 mm 6 mps 754 mmHg 55%
    15:00 +20°C° 0 mm 6 mps 753 mmHg 53%
    16:00 +19°C° 0 mm 5 mps 753 mmHg 57%
    17:00 +17°C° 0 mm 5 mps 752 mmHg 61%
    18:00 +17°C° 0 mm 4 mps 752 mmHg 65%
    19:00 +15°C° 0 mm 4 mps 752 mmHg 69%
    20:00 +13°C° 0 mm 4 mps 752 mmHg 74%
    21:00 +12°C° 0 mm 3 mps 752 mmHg 78%
    22:00 +11°C° 0 mm 3 mps 751 mmHg 81%
    23:00 +10°C° 0 mm 3 mps 751 mmHg 83%

    22 April, Monday

    Time Temperature Precipitation Wind Pressure Humidity
    00:00 +10°C° 0 mm 3 mps 751 mmHg 86%
    01:00 +9°C° 0 mm 3 mps 750 mmHg 88%
    02:00 +9°C° 0 mm 2 mps 750 mmHg 90%
    03:00 +9°C° 0 mm 2 mps 749 mmHg 92%
    04:00 +9°C° 0 mm 2 mps 749 mmHg 92%
    05:00 +9°C° 0 mm 2 mps 749 mmHg 92%
    06:00 +10°C° 0 mm 2 mps 749 mmHg 92%
    07:00 +11°C° 0 mm 3 mps 749 mmHg 85%
    08:00 +13°C° 0 mm 3 mps 749 mmHg 79%
    09:00 +14°C° 0 mm 4 mps 749 mmHg 72%
    10:00 +15°C° 0 mm 5 mps 748 mmHg 70%
    11:00 +15°C° 0 mm 6 mps 748 mmHg 67%
    12:00 +16°C° 0 mm 7 mps 748 mmHg 64%
    13:00 +16°C° 0 mm 7 mps 748 mmHg 65%
    14:00 +15°C° 0 mm 7 mps 747 mmHg 66%
    15:00 +15°C° 0 mm 7 mps 747 mmHg 66%
    16:00 +14°C° 0 mm 7 mps 747 mmHg 68%
    17:00 +12°C° 0 mm 7 mps 747 mmHg 70%
    18:00 +11°C° 0 mm 6 mps 747 mmHg 72%
    19:00 +9°C° 0 mm 6 mps 747 mmHg 78%
    20:00 +8°C° 0 mm 5 mps 747 mmHg 84%
    21:00 +6°C° 0 mm 4 mps 747 mmHg 89%
    22:00 +6°C° 0 mm 4 mps 747 mmHg 91%
    23:00 +7°C° 0 mm 3 mps 747 mmHg 94%

    23 April, Tuesday

    Time Temperature Precipitation Wind Pressure Humidity
    00:00 +7°C° 0 mm 3 mps 747 mmHg 96%
    01:00 +7°C° 0 mm 3 mps 747 mmHg 96%
    02:00 +7°C° 0 mm 3 mps 747 mmHg 96%
    03:00 +7°C° 0 mm 3 mps 746 mmHg 96%
    04:00 +7°C° 0 mm 3 mps 746 mmHg 95%
    05:00 +7°C° 0 mm 3 mps 746 mmHg 94%
    06:00 +6°C° 0 mm 4 mps 746 mmHg 93%
    07:00 +7°C° 0 mm 4 mps 746 mmHg 88%
    08:00 +9°C° 0 mm 5 mps 746 mmHg 84%
    09:00 +10°C° 0 mm 6 mps 746 mmHg 79%
    10:00 +10°C° 0 mm 6 mps 746 mmHg 76%
    11:00 +11°C° 0 mm 7 mps 746 mmHg 72%
    12:00 +11°C° 0 mm 7 mps 746 mmHg 69%
    13:00 +11°C° 0 mm 7 mps 745 mmHg 72%
    14:00 +11°C° 0 mm 7 mps 745 mmHg 74%
    15:00 +11°C° 0 mm 7 mps 745 mmHg 76%
    16:00 +10°C° 0 mm 6 mps 744 mmHg 80%
    17:00 +9°C° 0 mm 6 mps 744 mmHg 84%
    18:00 +8°C° 0 mm 5 mps 744 mmHg 88%
    19:00 +7°C° 0 mm 5 mps 744 mmHg 90%
    20:00 +7°C° 0 mm 4 mps 744 mmHg 91%
    21:00 +6°C° 0 mm 4 mps 744 mmHg 92%
    22:00 +7°C° 0 mm 3 mps 744 mmHg 94%
    23:00 +5°C° 0 mm 3 mps 744 mmHg 95%

    24 April, Wednesday

    Time Temperature Precipitation Wind Pressure Humidity
    00:00 +5°C° 0 mm 3 mps 744 mmHg 96%
    01:00 +6°C° 0 mm 2 mps 743 mmHg 96%
    02:00 +5°C° 0 mm 2 mps 743 mmHg 96%
    03:00 +5°C° 0 mm 2 mps 743 mmHg 96%
    04:00 +6°C° 0 mm 2 mps 743 mmHg 96%
    05:00 +5°C° 0 mm 3 mps 742 mmHg 95%
    06:00 +7°C° 0 mm 3 mps 742 mmHg 94%
    07:00 +7°C° 0 mm 3 mps 742 mmHg 91%
    08:00 +8°C° 0 mm 3 mps 742 mmHg 87%
    09:00 +8°C° 0 mm 4 mps 742 mmHg 84%
    10:00 +10°C° 0 mm 4 mps 742 mmHg 81%
    11:00 +10°C° 0 mm 5 mps 742 mmHg 78%
    12:00 +11°C° 0 mm 6 mps 742 mmHg 75%
    13:00 +11°C° 0 mm 6 mps 742 mmHg 76%
    14:00 +11°C° 0 mm 7 mps 741 mmHg 77%
    15:00 +11°C° 0 mm 7 mps 741 mmHg 78%
    16:00 +10°C° 0.9 mm 6 mps 741 mmHg 83%
    17:00 +10°C° 0.9 mm 6 mps 741 mmHg 89%
    18:00 +9°C° 0.9 mm 5 mps 741 mmHg 95%
    19:00 +10°C° 0.6 mm 4 mps 741 mmHg 94%
    20:00 +10°C° 0.6 mm 4 mps 741 mmHg 93%
    21:00 +10°C° 0.6 mm 3 mps 741 mmHg 92%
    22:00 +9°C° 0 mm 3 mps 741 mmHg 92%
    23:00 +8°C° 0 mm 3 mps 741 mmHg 93%
    Show more